Tracking 18624 objects as of 30-April-2017
HD Live streaming from Space Station
objects crossing your sky now

TIANLIAN 1-02

Track TIANLIAN 1-02 now!
TIANLIAN 1-02 is classified as:


NORAD ID: 37737
Int'l Code: 2011-032A
Perigee: 35,765.5 km
Apogee: 35,819.5 km
Inclination: 2.5 °
Period: 1,436.0 minutes
Semi major axis: 42163 km
RCS: 12.5893 m2 (large)
Launch date: July 11, 2011
Source: People's Republic of China (PRC)
Launch site: Xichang Space Center, China (XSC)

TIANLIAN 1-02 is the second Tianlian 1 data relay satellite, joining a similar craft launched in April 2008. The satellites are part of a network to increase the coverage of tracking stations for Chinese space missions across the globe.
Your satellite tracking list
Your tracking list is empty





NASA's NSSDC Master Catalog

Two Line Element Set (TLE):
1 37737U 11032A   17118.72184420 +.00000016 +00000-0 +00000-0 0  9997
2 37737 002.4894 077.5825 0006406 222.8899 353.1047 01.00276297021264
Source of the keplerian elements: AFSPC